x

Central Caribbean - 210 Nm Sse Of Kingston, Jamaica (42058) Weather Station

7:20 - Tue 19th Sep 2017 All times are EST. -5 hours from GMT.

  • Wind
    16mph, 20mph gusts
  • Sea Temp 85°f
  • Sea Pressure 1012.8mb
  • Central Caribbean - 210 Nm Sse Of Kingston, Jamaica
  • Central Caribbean - 210 Nm Sse Of Kingston, Jamaica

More Historic Weather Station data

Upgrade to MSW Pro to gain access to the past 30 days of data for over 8000 Wavebouys and Weather Stations around the globe.

Join

Comparision Forecast

View Surf forecast
   
mar 09/19 7:20  -   -   -  16 20 mph 1012.8mb 85f
7:10  -   -   -  16 20 mph 1012.7mb 85f
7:00  -   -   -  16 20 mph 1012.6mb 85f
6:50 2.5ft 6s 4s 13 18 mph 1012.5mb 85f
6:40  -   -   -  13 16 mph 1012.3mb 85f
6:30  -   -   -  13 16 mph 1012.2mb 85f
6:20  -   -   -  13 16 mph 1012.2mb 85f
6:10  -   -   -  13 16 mph 1012.2mb 85f
6:00  -   -   -  13 16 mph 1012mb 85f
5:50 3ft 7s 4s 13 16 mph 1011.9mb 85f
5:40  -   -   -  16 18 mph 1011.8mb 85f
5:30  -   -   -  16 18 mph 1011.8mb 85f
5:20  -   -   -  16 18 mph 1011.7mb 85f
5:10  -   -   -  16 20 mph 1011.6mb 85f
5:00  -   -   -  16 18 mph 1011.5mb 85f
4:50 2.5ft 6s 4s 13 18 mph 1011.5mb 85f
4:40  -   -   -  16 18 mph 1011.2mb 85f
4:30  -   -   -  16 18 mph 1011.2mb 85f
4:20  -   -   -  13 18 mph 1011.2mb 85f
4:10  -   -   -  13 16 mph 1011mb 85f
4:00  -   -   -  13 18 mph 1010.9mb 85f
3:50 3.5ft 7s 4s 16 20 mph 1010.9mb 85f
3:40 3.5ft  -  4s 18 20 mph 1010.8mb 85f
3:30  -   -   -  18 20 mph 1010.8mb 85f
3:20  -   -   -  18 20 mph 1010.8mb 85f
3:10  -   -   -  16 20 mph 1010.9mb 85f
3:00  -   -   -  18 20 mph 1010.8mb 85f
2:50 2.5ft 7s 4s 16 20 mph 1010.6mb 85f
2:40 2.5ft  -  4s 18 20 mph 1010.6mb 85f
2:30  -   -   -  16 20 mph 1010.6mb 85f
2:20  -   -   -  16 18 mph 1010.5mb 85f
2:10  -   -   -  16 18 mph 1010.5mb 85f
2:00  -   -   -  16 18 mph 1010.6mb 85f
1:50 2.5ft 7s 4s 16 18 mph 1010.6mb 85f
1:40  -   -   -  16 18 mph 1010.7mb 85f
1:30  -   -   -  16 18 mph 1010.9mb 85f
1:20  -   -   -  16 20 mph 1011mb 85f
1:10  -   -   -  16 18 mph 1011.1mb 85f
1:00  -   -   -  16 18 mph 1011.2mb 85f
12:50 3ft  -  4s 16 20 mph - 85f
12:40  -   -   -  16 20 mph 1011.4mb 85f
12:30  -   -   -  16 18 mph 1011.5mb 85f
12:20  -   -   -  16 20 mph 1011.6mb 85f
12:10  -   -   -  16 18 mph 1011.7mb 85f
12:00  -   -   -  16 18 mph 1011.7mb -
lun 09/18 11:50 3.5ft 7s 4s 16 18 mph 1011.7mb 85f
11:40  -   -   -  16 18 mph 1011.7mb 85f
11:30  -   -   -  16 18 mph 1011.8mb 85f
11:20  -   -   -  16 18 mph 1012mb 85f
11:10  -   -   -  16 18 mph 1012mb 85f
11:00  -   -   -  13 18 mph 1012.1mb 85f
10:50 3ft 6s 4s 13 18 mph 1012.2mb 85f
10:40  -   -   -  13 18 mph 1012.2mb 85f
10:30  -   -   -  13 18 mph 1012.2mb 85f
10:20  -   -   -  13 18 mph 1012.2mb 85f
10:10  -   -   -  16 18 mph 1012.2mb 85f
10:00  -   -   -  16 18 mph 1012.2mb 85f
9:50 3ft 7s 5s 13 18 mph 1012.2mb 85f
9:40  -   -   -  13 18 mph 1012.2mb 85f
9:30  -   -   -  13 16 mph 1012.3mb 85f
9:20  -   -   -  13 18 mph 1012.4mb 85f
9:10  -   -   -  13 16 mph 1012.4mb 85f
9:00  -   -   -  13 16 mph 1012.4mb 85f
8:50 3.5ft 6s 5s 13 16 mph 1012.4mb 85f
8:40  -   -   -  11 16 mph 1012.4mb 85f
8:30  -   -   -  13 16 mph 1012.4mb 86f
8:20  -   -   -  13 16 mph - -
8:10  -   -   -  11 16 mph 1012.2mb 86f
8:00  -   -   -  13 16 mph 1012.1mb 86f
7:50 3.5ft 7s 5s 13 16 mph 1011.9mb 86f
7:40 3.5ft  -  5s 11 16 mph 1011.9mb 86f
7:30  -   -   -  9 16 mph 1011.7mb 86f
7:20  -   -   -  9 11 mph 1011.7mb 86f
7:10  -   -   -  9 11 mph 1011.6mb 86f
7:00  -   -   -  9 11 mph 1011.5mb 86f
6:50 3.5ft 7s 5s 9 11 mph 1011.5mb 86f
6:40  -   -   -  9 11 mph 1011.3mb 86f
6:30  -   -   -  9 11 mph 1011.3mb 86f
6:20  -   -   -  9 11 mph 1011.2mb 86f
6:10  -   -   -  9 11 mph 1011.2mb 86f
6:00  -   -   -  9 11 mph 1011mb 86f
5:50 3.5ft 7s 5s 9 11 mph 1010.9mb 86f
5:40  -   -   -  9 11 mph 1010.9mb 86f
5:30  -   -   -  9 11 mph 1010.8mb -
5:20  -   -   -  7 9 mph 1010.7mb 86f
5:10  -   -   -  7 9 mph 1010.7mb 86f
5:00  -   -   -  7 9 mph 1010.6mb 86f
4:50 3.5ft 6s 5s 9 9 mph 1010.7mb 86f
4:40 3.5ft  -  5s 9 9 mph 1010.5mb 86f
4:30  -   -   -  9 11 mph 1010.4mb 86f
4:20  -   -   -  9 11 mph 1010.5mb 86f
4:10  -   -   -  9 11 mph 1010.6mb 86f
4:00  -   -   -  9 11 mph 1010.5mb 86f
3:50 3.5ft 7s 5s 9 13 mph 1010.4mb 86f
3:40  -   -   -  11 11 mph 1010.4mb 86f
3:30  -   -   -  11 13 mph 1010.4mb 86f
3:20  -   -   -  11 13 mph 1010.4mb 86f
3:10  -   -   -  11 13 mph 1010.4mb 86f
3:00  -   -   -  11 13 mph 1010.5mb 86f
2:50 3.5ft 6s 4s 11 13 mph 1010.7mb 86f
2:40 3.5ft  -  4s 11 13 mph 1010.7mb 86f
2:30  -   -   -  11 16 mph 1010.7mb 86f
2:20  -   -   -  11 13 mph 1010.9mb 86f
2:10  -   -   -  13 16 mph 1011mb 86f
2:00  -   -   -  13 18 mph 1010.9mb 86f
1:50 3.5ft 5s 4s 13 16 mph 1010.9mb 86f
1:40  -   -   -  13 16 mph 1011mb 86f
1:30  -   -   -  13 16 mph 1011.1mb 86f
1:20  -   -   -  13 16 mph 1011.3mb 86f
1:10  -   -   -  13 16 mph 1011.4mb 86f
1:00  -   -   -  13 16 mph 1011.5mb 86f
12:50 4ft 7s 4s 13 18 mph 1011.5mb 85f
12:40  -   -   -  16 18 mph 1011.5mb 85f
12:30  -   -   -  16 18 mph 1011.5mb 85f
12:20  -   -   -  16 20 mph 1011.6mb 85f
12:10  -   -   -  16 20 mph 1011.6mb 85f
12:00  -   -   -  16 20 mph 1011.7mb 85f
11:50 4.5ft 7s 4s 16 20 mph 1011.7mb 85f
11:40 4.5ft  -  4s 18 22 mph 1011.9mb 85f
11:30  -   -   -  16 20 mph 1012mb 85f
11:20  -   -   -  18 22 mph 1012.2mb 85f
11:10  -   -   -  18 22 mph 1012.2mb 85f
11:00  -   -   -  18 22 mph 1012.2mb 85f
10:50 4ft 5s 4s 18 20 mph 1012.2mb 85f
10:40 4ft  -  4s 18 20 mph 1012.3mb 85f
10:30  -   -   -  18 22 mph 1012.4mb 85f
10:20  -   -   -  18 22 mph 1012.4mb 85f
10:10  -   -   -  20 25 mph 1012.5mb 85f
10:00  -   -   -  20 25 mph 1012.4mb 85f
9:50 4.5ft 7s 4s 20 22 mph 1012.4mb 85f
9:40  -   -   -  18 25 mph 1012.5mb 85f
9:30  -   -   -  18 22 mph 1012.5mb 85f
9:20  -   -   -  18 22 mph 1012.5mb 85f
9:10  -   -   -  18 20 mph 1012.5mb 85f
9:00  -   -   -  18 22 mph 1012.5mb 85f
8:50 4ft 7s 4s 20 22 mph 1012.3mb 85f
8:40  -   -   -  20 25 mph 1012.3mb 85f
8:30  -   -   -  18 22 mph 1012.3mb 85f
8:20  -   -   -  18 22 mph 1012.3mb 85f
8:10  -   -   -  16 22 mph 1012.1mb 85f
8:00  -   -   -  18 20 mph 1012mb -
7:50 4.5ft 7s 4s 16 18 mph 1012mb 85f
7:40  -   -   -  18 20 mph 1011.9mb 85f
7:30  -   -   -  18 20 mph 1011.9mb 85f
7:20  -   -   -  18 22 mph 1011.8mb 85f
7:10  -   -   -  18 22 mph 1011.7mb 85f
7:00  -   -   -  18 22 mph 1011.7mb 85f
6:50 4.5ft 7s 4s 18 22 mph 1011.6mb 85f
6:40  -   -   -  20 25 mph 1011.6mb 85f
6:30  -   -   -  20 25 mph 1011.4mb 85f
6:20  -   -   -  20 25 mph 1011.2mb 85f
6:10  -   -   -  18 22 mph 1011mb 85f
6:00  -   -   -  20 22 mph 1011mb 85f
5:50 4.5ft 7s 4s 18 22 mph 1011mb 85f
5:40  -   -   -  20 22 mph 1010.9mb 85f
5:30  -   -   -  20 25 mph 1010.9mb 85f
5:20  -   -   -  20 25 mph 1010.9mb 85f
5:10  -   -   -  20 25 mph 1010.9mb 85f
5:00  -   -   -  20 25 mph 1010.9mb 85f
4:50 4ft 7s 4s 20 25 mph 1010.9mb 85f
4:40  -   -   -  20 25 mph 1010.8mb 85f
4:30  -   -   -  22 27 mph 1010.6mb 85f
4:20  -   -   -  20 25 mph 1010.6mb 85f
4:10  -   -   -  20 25 mph 1010.6mb 85f
4:00  -   -   -  18 25 mph 1010.6mb 85f
3:50 4.5ft 7s 5s 20 22 mph 1010.6mb 85f
3:40  -   -   -  18 22 mph 1010.4mb 85f
3:30  -   -   -  18 22 mph 1010.5mb 85f
3:20  -   -   -  18 22 mph 1010.6mb 85f
3:10  -   -   -  18 20 mph 1010.6mb 85f
3:00  -   -   -  18 22 mph 1010.4mb 85f
2:50 4.5ft 7s 5s 18 22 mph 1010.4mb 85f
2:40  -   -   -  18 22 mph 1010.4mb 85f
2:30  -   -   -  18 20 mph 1010.6mb 85f
2:20  -   -   -  18 22 mph 1010.5mb 85f
2:10  -   -   -  18 22 mph 1010.6mb 85f
2:00  -   -   -  18 22 mph 1010.6mb 85f
1:50 4.5ft 7s 5s 18 22 mph 1010.6mb 85f
1:40  -   -   -  18 22 mph 1010.6mb 85f
1:30  -   -   -  20 22 mph 1010.7mb 85f
1:20  -   -   -  20 22 mph 1010.8mb 85f
1:10  -   -   -  18 22 mph 1010.8mb 85f
1:00  -   -   -  18 22 mph 1010.9mb 85f
12:50 4.5ft 7s 5s 16 20 mph 1011.1mb 85f
12:40  -   -   -  16 20 mph 1011.2mb 85f
12:30  -   -   -  18 20 mph 1011.4mb 85f
12:20  -   -   -  18 20 mph 1011.5mb 85f
12:10  -   -   -  18 20 mph 1011.5mb 85f
12:00  -   -   -  18 22 mph 1011.5mb 85f
dom 09/17 11:50 4ft 7s 4s 18 22 mph 1011.5mb 86f
11:40  -   -   -  18 22 mph 1011.6mb 86f
11:30  -   -   -  20 25 mph - -
11:20  -   -   -  20 25 mph 1011.8mb 86f
11:10  -   -   -  18 20 mph 1012mb 86f
11:00  -   -   -  18 22 mph 1012.1mb 86f
10:50 4.5ft 7s 5s 20 25 mph 1012.1mb 86f
10:40 4.5ft  -  5s 18 20 mph 1012.2mb 86f
10:30  -   -   -  18 20 mph 1012.1mb 86f
10:20  -   -   -  18 22 mph 1012.2mb 86f
10:10  -   -   -  16 20 mph 1012.2mb 86f
10:00  -   -   -  18 20 mph 1012.2mb 86f
9:50 4.5ft 7s  -  18 20 mph 1012.2mb 86f
9:40  -   -   -  16 20 mph 1012.5mb 86f
9:30  -   -   -  16 18 mph 1012.6mb 86f
9:20  -   -   -  16 20 mph 1012.5mb 86f
9:10  -   -   -  16 20 mph 1012.5mb 86f
9:00  -   -   -  16 18 mph 1012.3mb 86f
8:50 4.5ft 7s 5s 16 18 mph 1012.2mb 86f
8:40 4.5ft  -  5s 16 18 mph 1012.1mb 86f
8:30  -   -   -  16 20 mph 1011.9mb 86f
8:20  -   -   -  16 20 mph 1011.7mb 86f
8:10  -   -   -  16 20 mph 1011.6mb 86f
8:00  -   -   -  18 20 mph 1011.5mb 86f
7:50 4.5ft 8s 5s 18 20 mph 1011.3mb 86f
7:40 4.5ft  -  5s 16 18 mph 1011.1mb 86f
7:30  -   -   -  16 18 mph 1011mb 86f
7:20  -   -   -  18 20 mph 1010.9mb 86f
7:10  -   -   -  18 20 mph 1010.6mb 86f
7:00  -   -   -  16 20 mph 1010.6mb 86f
6:50 4.5ft 7s 5s 16 18 mph 1010.5mb 86f
6:40  -   -   -  16 18 mph 1010.5mb 86f
6:30  -   -   -  16 20 mph 1010.5mb 86f
6:20  -   -   -  16 18 mph 1010.4mb 86f
6:10  -   -   -  16 18 mph 1010.2mb 86f
6:00  -   -   -  16 20 mph 1010.1mb 86f
5:50 4.5ft 7s 5s 18 22 mph 1010.1mb 86f
5:40 4.5ft  -  5s 18 20 mph 1009.8mb 86f
5:30  -   -   -  18 20 mph 1009.6mb 86f
5:20  -   -   -  18 20 mph 1009.5mb 86f
5:10  -   -   -  18 20 mph 1009.5mb 86f
5:00  -   -   -  18 20 mph 1009.5mb 86f
4:50 4.5ft 8s 5s 18 20 mph 1009.5mb 86f
4:40  -   -   -  18 20 mph 1009.5mb 86f
4:30  -   -   -  16 20 mph 1009.5mb 86f
4:20  -   -   -  16 20 mph 1009.6mb 86f
4:10  -   -   -  16 20 mph 1009.6mb 86f
4:00  -   -   -  16 20 mph 1009.6mb 86f
3:50 5ft 7s 5s 16 20 mph 1009.8mb 86f
3:40 5ft  -  5s 16 20 mph 1009.9mb -
3:30  -   -   -  16 20 mph 1009.9mb 86f
3:20  -   -   -  16 20 mph 1010mb 86f
3:10  -   -   -  16 18 mph 1010mb 86f
3:00  -   -   -  16 18 mph 1010.1mb 86f
2:50 4.5ft 7s 5s 16 20 mph 1010.2mb 86f
2:40  -   -   -  16 20 mph 1010.4mb 86f
2:30  -   -   -  16 20 mph 1010.3mb 86f
2:20  -   -   -  18 20 mph 1010.3mb 86f
2:10  -   -   -  18 20 mph 1010.3mb 86f
2:00  -   -   -  18 20 mph 1010.3mb 86f
1:50 5ft  -  5s 18 20 mph 1010.4mb -
1:40 5ft 8s  -   -  mph - 86f
1:30  -   -   -  18 20 mph 1010.7mb 86f
1:20  -   -   -  18 20 mph 1010.7mb 86f
1:10  -   -   -  18 22 mph 1010.9mb 86f
1:00  -   -   -  18 22 mph 1010.9mb 86f
12:50 5ft 7s 5s 18 20 mph 1011mb 86f
12:40 5ft  -  5s 18 22 mph 1011.2mb 86f
12:30  -   -   -  18 20 mph 1011.5mb 86f
12:20  -   -   -  18 22 mph 1011.5mb 86f
12:10  -   -   -  18 22 mph 1011.7mb 86f
12:00  -   -   -  18 22 mph 1011.9mb 85f
11:50 5ft 7s 5s 18 20 mph 1012mb 85f
11:40 5ft  -  5s 18 22 mph 1012.2mb 85f
11:30  -   -   -  18 22 mph 1012.2mb 85f
11:20  -   -   -  16 20 mph 1012.3mb 85f
11:10  -   -   -  18 20 mph 1012.4mb 85f
11:00  -   -   -  18 22 mph 1012.5mb 85f
10:50 5ft 8s 5s 18 22 mph 1012.5mb 85f
10:40  -   -   -  18 20 mph 1012.6mb 85f
10:30  -   -   -  18 22 mph 1012.6mb -
10:20  -   -   -  18 22 mph 1012.6mb 85f
10:10  -   -   -  18 22 mph 1012.8mb 85f
10:00  -   -   -  18 22 mph 1012.9mb 85f
9:50 5.5ft 8s 5s 18 22 mph 1013.1mb 85f
9:40 5.5ft  -  5s 20 22 mph 1013.1mb 85f
9:30  -   -   -  18 22 mph 1013.1mb 85f
9:20  -   -   -  18 22 mph 1013.1mb 85f
9:10  -   -   -  18 22 mph 1013.1mb 85f
9:00  -   -   -  18 22 mph 1012.9mb 85f
8:50 5ft 7s 5s 18 22 mph 1012.9mb -
8:40  -   -   -  18 22 mph 1012.7mb 85f
8:30  -   -   -  18 20 mph 1012.6mb 85f
8:20  -   -   -  18 22 mph 1012.6mb 85f
8:10  -   -   -  16 20 mph 1012.5mb 85f
8:00  -   -   -  16 20 mph 1012.3mb 85f
7:50 5.5ft 6s 5s 16 20 mph 1012.1mb 85f
7:40  -   -   -  16 20 mph 1011.9mb 85f
7:30  -   -   -  18 22 mph 1011.7mb 85f
7:20  -   -   -  18 22 mph 1011.6mb 85f
7:10  -   -   -  18 22 mph 1011.6mb 85f
7:00  -   -   -  18 22 mph 1011.5mb 85f
6:50 5.5ft 6s 5s 18 22 mph 1011.2mb -
6:40  -   -   -  20 22 mph 1011.2mb 85f
6:30  -   -   -  20 25 mph 1011.1mb 85f
6:20  -   -   -  20 25 mph 1010.9mb 85f
6:10  -   -   -  20 25 mph 1010.9mb 85f
6:00  -   -   -  22 25 mph 1010.7mb 85f
5:50 5.5ft 8s 5s 22 27 mph 1010.6mb 85f
5:40 5.5ft  -  5s 20 25 mph 1010.7mb 85f
5:30  -   -   -  20 25 mph 1010.6mb -
5:20  -   -   -  20 25 mph 1010.5mb 85f
5:10  -   -   -  20 25 mph 1010.4mb 85f
5:00  -   -   -  20 27 mph 1010.4mb -
4:50 5.5ft 8s 5s 20 25 mph 1010.4mb 85f
4:40 5.5ft  -  5s 20 25 mph 1010.4mb 85f
4:30  -   -   -  20 25 mph 1010.4mb 85f
4:20  -   -   -  20 25 mph 1010.4mb 85f
4:10  -   -   -  20 25 mph 1010.4mb 85f
4:00  -   -   -  20 25 mph 1010.2mb 85f
3:50 5.5ft 8s 5s 20 25 mph 1010.1mb 85f
3:40 5.5ft  -  5s 20 25 mph 1010mb 85f
3:30  -   -   -  18 22 mph 1009.9mb 85f
3:20  -   -   -  18 22 mph 1009.9mb 85f
3:10  -   -   -  20 25 mph 1009.9mb 85f
3:00  -   -   -  20 25 mph 1009.9mb 85f
2:50 5.5ft 6s 5s 20 25 mph 1010.1mb 85f
2:40  -   -   -  20 25 mph 1009.9mb 85f
2:30  -   -   -  20 25 mph 1010mb 85f
2:20  -   -   -  20 25 mph 1010mb 85f
2:10  -   -   -  20 25 mph 1010mb 85f
2:00  -   -   -  20 25 mph 1010.1mb 85f
1:50 5.5ft  -  5s 20 25 mph 1010.1mb 85f
1:40 5.5ft  -  5s 20 25 mph 1010.2mb 85f
1:30  -   -   -  20 25 mph 1010.4mb 85f
1:20  -   -   -  20 25 mph 1010.5mb 85f
1:10  -   -   -  20 22 mph 1010.6mb 85f
1:00  -   -   -  20 25 mph 1010.8mb 85f
12:50 5.5ft 8s 5s 20 25 mph 1010.9mb 85f
12:40  -   -   -  20 25 mph 1010.9mb 85f
12:30  -   -   -  20 25 mph 1011.1mb 85f
12:20  -   -   -  20 25 mph 1011.2mb 85f
12:10  -   -   -  20 25 mph 1011.4mb 85f
12:00  -   -   -  20 27 mph 1011.5mb 85f
sáb 09/16 11:50 6ft 8s 5s 20 25 mph 1011.5mb 85f
11:40  -   -   -  20 27 mph 1011.6mb 85f
11:30  -   -   -  20 25 mph 1011.7mb -
11:20  -   -   -  20 25 mph 1011.7mb 85f
11:10  -   -   -  20 27 mph 1011.7mb 85f
11:00  -   -   -  22 27 mph 1011.8mb 85f
10:50 6ft 8s 5s 20 25 mph 1011.9mb 85f
10:40  -   -   -  20 25 mph 1012mb 85f
10:30  -   -   -  20 25 mph 1012mb 85f
10:20  -   -   -  20 22 mph 1012mb 85f
10:10  -   -   -  20 27 mph 1012mb 85f
10:00  -   -   -  20 25 mph 1011.9mb 85f
9:50 6ft 8s 5s 20 27 mph 1011.8mb 85f
9:40 6ft  -  5s 22 27 mph 1011.8mb 85f
9:30  -   -   -  20 25 mph 1011.8mb 85f
9:20  -   -   -  20 25 mph 1011.8mb 85f
9:10  -   -   -  20 25 mph 1011.7mb -
9:00  -   -   -  20 25 mph 1011.7mb 85f
8:50 6ft 8s 5s 20 25 mph 1011.6mb 85f
8:40  -   -   -  20 27 mph 1011.5mb 85f
8:30  -   -   -  20 25 mph 1011.5mb 85f
8:20  -   -   -  20 25 mph 1011.3mb 85f
8:10  -   -   -  20 25 mph 1011mb 85f
8:00  -   -   -  22 27 mph 1010.9mb 85f
7:50 5.5ft 8s 5s 22 25 mph 1010.9mb 85f
7:40  -   -   -  22 27 mph 1010.7mb 85f
7:30  -   -   -  22 27 mph 1010.6mb 85f
7:20  -   -   -  22 27 mph 1010.5mb 85f
7:10  -   -   -  20 25 mph 1010.5mb 85f
7:00  -   -   -  20 27 mph 1010.4mb 85f
6:50 5.5ft 8s 5s 20 27 mph 1010.3mb 85f
6:40  -   -   -  20 25 mph 1010.3mb 85f
6:30  -   -   -  20 25 mph 1010.1mb 85f
6:20  -   -   -  18 25 mph 1009.9mb 85f
6:10  -   -   -  18 22 mph 1009.8mb 85f
6:00  -   -   -  20 22 mph 1009.8mb 85f
5:50 5.5ft 8s 5s 20 25 mph 1009.6mb 85f
5:40  -   -   -  20 25 mph 1009.6mb 86f
5:30  -   -   -  20 22 mph 1009.7mb 85f
5:20  -   -   -  18 22 mph 1009.6mb 86f
5:10  -   -   -  20 22 mph 1009.6mb 86f
5:00  -   -   -  20 25 mph 1009.4mb 85f
4:50 5ft 8s 5s 20 25 mph 1009.3mb 85f
4:40  -   -   -  18 22 mph 1009.2mb 85f
4:30  -   -   -  20 22 mph 1009.1mb 85f
4:20  -   -   -  20 25 mph 1009.1mb 85f
4:10  -   -   -  20 25 mph 1009mb 85f
4:00  -   -   -  20 25 mph 1009mb 85f
3:50 5.5ft 8s 5s 20 25 mph 1009mb 85f
3:40  -   -   -  20 25 mph 1009mb 85f
3:30  -   -   -  20 25 mph 1009.2mb -
3:20  -   -   -  20 25 mph 1009.3mb 85f
3:10  -   -   -  20 25 mph 1009.3mb 85f
3:00  -   -   -  18 22 mph 1009.3mb 85f
2:50 5.5ft 8s 5s 20 25 mph 1009.4mb 86f
2:40  -   -   -  20 25 mph 1009.4mb -
2:30  -   -   -  20 25 mph 1009.6mb 86f
2:20  -   -   -  20 22 mph 1009.6mb 86f
2:10  -   -   -  20 25 mph 1009.7mb 86f
2:00  -   -   -  20 22 mph 1009.7mb 86f
1:50 5ft 7s 5s 18 22 mph 1009.8mb 85f
1:40  -   -   -  18 22 mph 1010mb 86f
1:30  -   -   -  18 22 mph 1010.1mb 85f
1:20  -   -   -  18 22 mph 1010.2mb 86f
1:10  -   -   -  20 25 mph 1010.3mb 85f
1:00  -   -   -  18 22 mph 1010.5mb 86f
12:50 6ft 7s 5s 20 25 mph 1010.8mb 86f
12:40  -   -   -  20 25 mph 1011mb 86f
12:30  -   -   -  20 25 mph 1011mb 86f
12:20  -   -   -  20 25 mph 1011.1mb 86f
12:10  -   -   -  20 25 mph 1011.1mb 86f
12:00  -   -   -  20 25 mph 1011.2mb 86f
11:50 5ft 8s 5s 20 25 mph 1011.3mb 85f
11:40 5ft  -  5s 20 25 mph 1011.5mb 85f
11:30  -   -   -  20 25 mph 1011.7mb 86f
11:20  -   -   -  18 22 mph 1011.8mb 86f
11:10  -   -   -  18 22 mph 1011.9mb 85f
11:00  -   -   -  18 22 mph 1012mb 85f
10:50 5ft 7s 5s 20 25 mph 1012.1mb 85f
10:40  -   -   -  18 22 mph 1012.2mb 85f
10:30  -   -   -  18 22 mph 1012.5mb -
10:20  -   -   -  18 22 mph 1012.5mb 85f
10:10  -   -   -  18 22 mph 1012.6mb 85f
10:00  -   -   -  18 22 mph 1012.8mb 85f
9:50 5.5ft 7s 5s 18 22 mph 1012.8mb 85f
9:40 5.5ft  -  5s 18 22 mph 1012.8mb 85f
9:30  -   -   -  18 20 mph 1012.8mb 85f
9:20  -   -   -  18 22 mph 1012.9mb 85f
9:10  -   -   -  18 22 mph 1012.8mb 85f
9:00  -   -   -  18 22 mph 1012.7mb 85f
8:50 5ft 7s 5s 18 20 mph 1012.6mb 85f
8:40  -   -   -  18 22 mph 1012.5mb 85f
8:30  -   -   -  20 25 mph 1012.4mb 85f
8:20  -   -   -  20 27 mph 1012.4mb 85f
8:10  -   -   -  20 22 mph 1012.4mb 85f
8:00  -   -   -  20 25 mph 1012.3mb 85f
7:50 5ft 7s 5s 20 25 mph 1012.2mb 85f
7:40  -   -   -  18 22 mph 1012.1mb -
7:30  -   -   -  18 22 mph 1012mb 85f
7:20  -   -   -  18 22 mph 1011.8mb 85f
7:10  -   -   -  18 22 mph 1011.5mb 85f
7:00  -   -   -  18 22 mph 1011.5mb 85f
6:50 5ft  -  5s 18 22 mph 1011.3mb 85f
6:40 5ft 7s 5s  -  mph - -
6:30  -   -   -  20 22 mph 1011.1mb 85f
6:20  -   -   -  16 20 mph 1011.2mb 85f
6:10  -   -   -  18 20 mph 1011.1mb 85f
6:00  -   -   -  18 22 mph 1011mb 85f
5:50 5ft 7s 5s 18 22 mph 1011mb 85f
5:40  -   -   -  18 25 mph 1011mb 85f
5:30  -   -   -  18 22 mph 1010.9mb 85f
5:20  -   -   -  18 22 mph 1010.9mb 85f
5:10  -   -   -  18 22 mph 1010.8mb 85f
5:00  -   -   -  18 22 mph 1010.7mb 85f
4:50 4.5ft 7s 5s 18 22 mph 1010.4mb 85f
4:40  -   -   -  18 22 mph 1010.3mb 85f
4:30  -   -   -  18 22 mph 1010.2mb 85f
4:20  -   -   -  18 20 mph 1010.1mb 85f
4:10  -   -   -  18 22 mph 1010mb 85f
4:00  -   -   -  20 22 mph 1009.9mb 85f
3:50 4.5ft 6s 5s 18 22 mph 1009.9mb 85f
3:40  -   -   -  18 22 mph 1009.8mb 86f
3:30  -   -   -  18 22 mph 1009.8mb 85f
3:20  -   -   -  18 22 mph 1009.8mb 85f
3:10  -   -   -  18 22 mph 1009.7mb 85f
3:00  -   -   -  18 22 mph 1009.5mb -
2:50 4.5ft 7s 5s 18 22 mph 1009.6mb 85f
2:40  -   -   -  20 22 mph 1009.5mb 86f
2:30  -   -   -  20 25 mph 1009.6mb 86f
2:20  -   -   -  20 25 mph 1009.7mb 86f
2:10  -   -   -  20 22 mph 1009.6mb 85f
2:00  -   -   -  20 25 mph 1009.8mb 85f
1:50 4.5ft 5s 4s 18 25 mph 1009.8mb 86f
1:40 4.5ft  -  4s 20 22 mph 1010.1mb 86f
1:30  -   -   -  18 22 mph 1010.1mb 86f
1:20  -   -   -  18 22 mph 1010.3mb 86f
1:10  -   -   -  18 22 mph 1010.4mb 86f
1:00  -   -   -  18 22 mph 1010.3mb 86f
12:50 4ft 5s 4s 18 22 mph 1010.3mb 86f
12:40 4ft  -  4s 18 22 mph 1010.5mb 86f
12:30  -   -   -  18 22 mph 1010.7mb 86f
12:20  -   -   -  20 22 mph 1010.9mb 86f
12:10  -   -   -  20 22 mph 1011.1mb 86f
12:00  -   -   -  18 22 mph 1011.2mb 86f
vie 09/15 11:50 4ft 5s 4s 18 20 mph 1011.2mb 86f
11:40  -   -   -  18 22 mph 1011.3mb 86f
11:30  -   -   -  18 22 mph 1011.4mb 86f
11:20  -   -   -  18 22 mph 1011.5mb 86f
11:10  -   -   -  18 22 mph 1011.7mb 86f
11:00  -   -   -  18 20 mph 1011.8mb 86f
10:50 4ft 4s 4s 18 22 mph 1011.9mb 86f
10:40 4ft  -  4s 18 25 mph 1011.8mb 86f
10:30  -   -   -  20 25 mph 1011.8mb 86f
10:20  -   -   -  20 25 mph 1011.9mb 86f
10:10  -   -   -  20 22 mph 1012mb 86f
10:00  -   -   -  18 22 mph 1012mb 86f
9:50 4ft 4s 4s 18 22 mph 1012mb 86f
9:40  -   -   -  18 22 mph 1012mb 86f
9:30  -   -   -  18 22 mph 1011.9mb 86f
9:20  -   -   -  20 25 mph 1011.7mb 86f
9:10  -   -   -  18 22 mph 1011.7mb 86f
9:00  -   -   -  18 22 mph 1011.6mb 86f
8:50 3.5ft 4s 4s 18 22 mph 1011.6mb 86f
8:40 3.5ft  -  4s 20 22 mph 1011.5mb 86f
8:30  -   -   -  18 22 mph 1011.3mb 86f
8:20  -   -   -  18 22 mph 1011.1mb 86f
8:10  -   -   -  18 22 mph 1010.9mb 86f
8:00  -   -   -  18 22 mph 1010.7mb 86f
7:50 3.5ft 4s 4s 18 22 mph 1010.5mb 86f
7:40 3.5ft  -  4s 20 22 mph 1010.3mb 86f
7:30  -   -   -  18 22 mph 1010.2mb 86f
7:20  -   -   -  20 22 mph 1010.1mb -
7:10  -   -   -  20 25 mph 1010mb 86f
7:00  -   -   -  20 25 mph 1009.8mb 86f
6:50 2.5ft 4s 4s 20 25 mph 1009.6mb 86f
6:40  -   -   -  20 25 mph 1009.5mb 86f
6:30  -   -   -  20 22 mph 1009.6mb 86f
6:20  -   -   -  20 25 mph 1009.4mb 86f
6:10  -   -   -  20 25 mph 1009.3mb 86f
6:00  -   -   -  18 22 mph 1009.3mb 86f
5:50 2.5ft 6s 4s 13 18 mph 1009.2mb 86f
5:40 2.5ft  -  4s 16 18 mph 1009.1mb 86f
5:30  -   -   -  13 18 mph 1009mb 86f
5:20  -   -   -  16 18 mph 1009mb 86f
5:10  -   -   -  13 18 mph 1008.9mb 86f
5:00  -   -   -  13 18 mph 1009mb 86f
4:50 2.5ft 4s 4s 13 18 mph 1009mb 86f
4:40 2.5ft  -  4s 16 18 mph 1008.9mb 86f
4:30  -   -   -  16 18 mph 1008.8mb 86f
4:20  -   -   -  16 18 mph 1008.8mb 86f
4:10  -   -   -  16 18 mph 1008.9mb 86f
4:00  -   -   -  13 18 mph 1008.9mb 86f
3:50 2.5ft 4s 4s 13 18 mph 1009mb 86f
3:40  -   -   -  13 16 mph 1009.1mb 86f
3:30  -   -   -  13 16 mph 1009mb 86f
3:20  -   -   -  13 16 mph 1009mb 86f
3:10  -   -   -  11 16 mph 1009mb 86f
3:00  -   -   -  13 16 mph 1009mb 86f
2:50 2.5ft 4s 4s 13 16 mph 1009.1mb 86f
2:40  -   -   -  13 18 mph 1009.1mb 86f
2:30  -   -   -  13 16 mph 1009.2mb 86f
2:20  -   -   -  13 16 mph 1009.2mb 86f
2:10  -   -   -  13 16 mph 1009.3mb 86f
2:00  -   -   -  13 16 mph 1009.5mb 86f
1:50 2.5ft 4s 4s 16 18 mph 1009.6mb 86f
1:40  -   -   -  13 16 mph 1009.8mb -
1:30  -   -   -  13 16 mph 1010mb 86f